When you browse on this site, cookies collect data to enhance your experience and personalize the content and advertising you see.
Visit our Privacy Policy to learn more. By continuing to use the site, you agree to this use of cookies and data.
  • En España
  • Lista de países
  • Para 7 días
  • Temperatura del agua
  • El tiempo en el mapa
  • Informadores
  • user-avatar
    Iniciar sesión

    Tiempo cada hora Paro

    Hoy, 29 Mayo, Viernes

    Tiempo Temperatura Precipitaciones Viento Presión Humedad
    00:00 +11°C° 0 mm 1 mps 560 mmHg 87%
    01:00 +11°C° 0 mm 1 mps 560 mmHg 86%
    02:00 +10°C° 0 mm 1 mps 559 mmHg 86%
    03:00 +10°C° 0 mm 1 mps 559 mmHg 85%
    04:00 +10°C° 0 mm 1 mps 559 mmHg 85%
    05:00 +11°C° 0 mm 1 mps 560 mmHg 84%
    06:00 +11°C° 0 mm 1 mps 560 mmHg 83%
    07:00 +14°C° 0 mm 1 mps 561 mmHg 77%
    08:00 +16°C° 0 mm 1 mps 563 mmHg 71%
    09:00 +18°C° 0 mm 2 mps 564 mmHg 65%
    10:00 +18°C° 0.5 mm 2 mps 564 mmHg 67%
    11:00 +19°C° 0.5 mm 2 mps 563 mmHg 69%
    12:00 +19°C° 0.5 mm 3 mps 563 mmHg 71%
    13:00 +18°C° 0.9 mm 2 mps 562 mmHg 73%
    14:00 +18°C° 0.9 mm 2 mps 561 mmHg 76%
    15:00 +18°C° 0.9 mm 2 mps 561 mmHg 79%
    16:00 +17°C° 0.4 mm 2 mps 560 mmHg 82%
    17:00 +16°C° 0.4 mm 1 mps 559 mmHg 85%
    18:00 +16°C° 0.4 mm 1 mps 559 mmHg 88%
    19:00 +15°C° 0.1 mm 1 mps 559 mmHg 90%
    20:00 +12°C° 0.1 mm 0 mps 559 mmHg 93%
    21:00 +11°C° 0.1 mm 0 mps 559 mmHg 96%
    22:00 +11°C° 0.1 mm 0 mps 559 mmHg 95%
    23:00 +12°C° 0.1 mm 0 mps 560 mmHg 95%

    Mañana, 30 Mayo, Sábado

    Tiempo Temperatura Precipitaciones Viento Presión Humedad
    00:00 +12°C° 0.1 mm 0 mps 560 mmHg 95%
    01:00 +12°C° 1.2 mm 0 mps 560 mmHg 96%
    02:00 +12°C° 1.2 mm 0 mps 560 mmHg 96%
    03:00 +11°C° 1.2 mm 0 mps 560 mmHg 97%
    04:00 +11°C° 0.3 mm 0 mps 560 mmHg 96%
    05:00 +12°C° 0.3 mm 0 mps 560 mmHg 96%
    06:00 +12°C° 0.3 mm 0 mps 560 mmHg 95%
    07:00 +14°C° 0.2 mm 1 mps 561 mmHg 92%
    08:00 +15°C° 0.2 mm 1 mps 562 mmHg 89%
    09:00 +16°C° 0.2 mm 1 mps 562 mmHg 86%
    10:00 +16°C° 0.6 mm 2 mps 562 mmHg 85%
    11:00 +16°C° 0.6 mm 2 mps 562 mmHg 85%
    12:00 +17°C° 0.6 mm 2 mps 562 mmHg 85%
    13:00 +16°C° 0.7 mm 2 mps 562 mmHg 87%
    14:00 +16°C° 0.7 mm 2 mps 561 mmHg 88%
    15:00 +16°C° 0.7 mm 2 mps 560 mmHg 90%
    16:00 +16°C° 0.3 mm 2 mps 560 mmHg 91%
    17:00 +15°C° 0.3 mm 1 mps 560 mmHg 91%
    18:00 +15°C° 0.3 mm 1 mps 560 mmHg 92%
    19:00 +14°C° 0.1 mm 1 mps 560 mmHg 94%
    20:00 +12°C° 0.1 mm 0 mps 560 mmHg 95%
    21:00 +12°C° 0.1 mm 0 mps 560 mmHg 96%
    22:00 +11°C° 0 mm 0 mps 560 mmHg 96%
    23:00 +11°C° 0 mm 0 mps 560 mmHg 96%

    Pasado mañana, 31 Mayo, Domingo

    Tiempo Temperatura Precipitaciones Viento Presión Humedad
    00:00 +11°C° 0 mm 0 mps 561 mmHg 95%
    01:00 +11°C° 0.1 mm 0 mps 561 mmHg 95%
    02:00 +11°C° 0.1 mm 0 mps 560 mmHg 95%
    03:00 +11°C° 0.1 mm 0 mps 560 mmHg 94%
    04:00 +11°C° 0.1 mm 0 mps 561 mmHg 93%
    05:00 +12°C° 0.1 mm 0 mps 561 mmHg 92%
    06:00 +12°C° 0.1 mm 0 mps 561 mmHg 92%
    07:00 +14°C° 0.1 mm 1 mps 562 mmHg 87%
    08:00 +16°C° 0.1 mm 1 mps 563 mmHg 83%
    09:00 +17°C° 0.1 mm 2 mps 564 mmHg 79%
    10:00 +18°C° 0.7 mm 2 mps 564 mmHg 81%
    11:00 +18°C° 0.7 mm 2 mps 564 mmHg 82%
    12:00 +18°C° 0.7 mm 2 mps 563 mmHg 84%
    13:00 +18°C° 0.7 mm 2 mps 563 mmHg 84%
    14:00 +18°C° 0.7 mm 2 mps 562 mmHg 85%
    15:00 +18°C° 0.7 mm 2 mps 562 mmHg 85%
    16:00 +17°C° 0.5 mm 2 mps 561 mmHg 87%
    17:00 +16°C° 0.5 mm 1 mps 561 mmHg 89%
    18:00 +16°C° 0.5 mm 1 mps 560 mmHg 92%
    19:00 +15°C° 0.1 mm 1 mps 560 mmHg 93%
    20:00 +13°C° 0.1 mm 0 mps 560 mmHg 95%
    21:00 +12°C° 0.1 mm 0 mps 561 mmHg 97%
    22:00 +12°C° 0.1 mm 0 mps 561 mmHg 96%
    23:00 +12°C° 0.1 mm 0 mps 561 mmHg 96%

    1 Junio, Lunes

    Tiempo Temperatura Precipitaciones Viento Presión Humedad
    00:00 +12°C° 0.1 mm 0 mps 561 mmHg 95%
    01:00 +11°C° 0.1 mm 0 mps 560 mmHg 94%
    02:00 +12°C° 0.1 mm 1 mps 560 mmHg 93%
    03:00 +12°C° 0.1 mm 1 mps 559 mmHg 92%
    04:00 +12°C° 0 mm 1 mps 560 mmHg 91%
    05:00 +11°C° 0 mm 0 mps 560 mmHg 90%
    06:00 +12°C° 0 mm 0 mps 560 mmHg 89%
    07:00 +14°C° 0.1 mm 1 mps 561 mmHg 84%
    08:00 +16°C° 0.1 mm 1 mps 562 mmHg 80%
    09:00 +19°C° 0.1 mm 1 mps 564 mmHg 75%
    10:00 +19°C° 0.3 mm 2 mps 563 mmHg 75%
    11:00 +19°C° 0.3 mm 2 mps 563 mmHg 74%
    12:00 +20°C° 0.3 mm 2 mps 563 mmHg 74%
    13:00 +20°C° 0.5 mm 2 mps 563 mmHg 75%
    14:00 +19°C° 0.5 mm 2 mps 562 mmHg 77%
    15:00 +19°C° 0.5 mm 2 mps 562 mmHg 79%
    16:00 +18°C° 0.3 mm 2 mps 561 mmHg 82%
    17:00 +18°C° 0.3 mm 2 mps 561 mmHg 85%
    18:00 +18°C° 0.3 mm 1 mps 560 mmHg 88%
    19:00 +16°C° 0.1 mm 1 mps 560 mmHg 90%
    20:00 +14°C° 0.1 mm 1 mps 560 mmHg 93%
    21:00 +12°C° 0.1 mm 0 mps 559 mmHg 96%
    22:00 +12°C° 0 mm 0 mps 559 mmHg 95%
    23:00 +12°C° 0 mm 0 mps 559 mmHg 93%

    2 Junio, Martes

    Tiempo Temperatura Precipitaciones Viento Presión Humedad
    00:00 +13°C° 0 mm 1 mps 559 mmHg 92%
    01:00 +13°C° 0 mm 1 mps 559 mmHg 92%
    02:00 +13°C° 0 mm 1 mps 559 mmHg 91%
    03:00 +13°C° 0 mm 1 mps 558 mmHg 91%
    04:00 +13°C° 0 mm 1 mps 559 mmHg 91%
    05:00 +13°C° 0 mm 1 mps 559 mmHg 91%
    06:00 +13°C° 0 mm 1 mps 559 mmHg 92%
    07:00 +15°C° 0.2 mm 1 mps 561 mmHg 85%
    08:00 +18°C° 0.2 mm 1 mps 562 mmHg 79%
    09:00 +19°C° 0.2 mm 2 mps 563 mmHg 72%
    10:00 +20°C° 0.6 mm 2 mps 562 mmHg 74%
    11:00 +20°C° 0.6 mm 2 mps 562 mmHg 75%
    12:00 +20°C° 0.6 mm 3 mps 562 mmHg 76%
    13:00 +20°C° 0.6 mm 2 mps 562 mmHg 77%
    14:00 +20°C° 0.6 mm 2 mps 561 mmHg 78%
    15:00 +20°C° 0.6 mm 2 mps 560 mmHg 78%
    16:00 +19°C° 0.3 mm 2 mps 560 mmHg 81%
    17:00 +18°C° 0.3 mm 2 mps 560 mmHg 84%
    18:00 +17°C° 0.3 mm 2 mps 559 mmHg 87%
    19:00 +16°C° 0.1 mm 1 mps 559 mmHg 90%
    20:00 +15°C° 0.1 mm 1 mps 559 mmHg 93%
    21:00 +13°C° 0.1 mm 0 mps 559 mmHg 96%
    22:00 +14°C° 0 mm 1 mps 559 mmHg 94%
    23:00 +14°C° 0 mm 1 mps 559 mmHg 92%

    3 Junio, Miércoles

    Tiempo Temperatura Precipitaciones Viento Presión Humedad
    00:00 +13°C° 0 mm 1 mps 559 mmHg 91%
    01:00 +13°C° 0 mm 1 mps 558 mmHg 91%
    02:00 +13°C° 0 mm 1 mps 558 mmHg 91%
    03:00 +13°C° 0 mm 1 mps 557 mmHg 91%
    04:00 +13°C° 0 mm 1 mps 558 mmHg 90%
    05:00 +14°C° 0 mm 1 mps 559 mmHg 89%
    06:00 +14°C° 0 mm 1 mps 559 mmHg 88%
    07:00 +16°C° 0.1 mm 1 mps 560 mmHg 82%
    08:00 +19°C° 0.1 mm 1 mps 561 mmHg 76%
    09:00 +21°C° 0.1 mm 1 mps 562 mmHg 70%
    10:00 +20°C° 0.4 mm 2 mps 562 mmHg 70%
    11:00 +21°C° 0.4 mm 2 mps 562 mmHg 69%
    12:00 +21°C° 0.4 mm 2 mps 562 mmHg 69%
    13:00 +21°C° 0.8 mm 2 mps 562 mmHg 72%
    14:00 +21°C° 0.8 mm 2 mps 561 mmHg 75%
    15:00 +20°C° 0.8 mm 2 mps 560 mmHg 78%
    16:00 +20°C° 0.4 mm 2 mps 560 mmHg 82%
    17:00 +19°C° 0.4 mm 2 mps 559 mmHg 86%
    18:00 +18°C° 0.4 mm 2 mps 559 mmHg 89%
    19:00 +18°C° 0.1 mm 1 mps 558 mmHg 92%
    20:00 +15°C° 0.1 mm 1 mps 558 mmHg 94%
    21:00 +14°C° 0.1 mm 1 mps 558 mmHg 96%
    22:00 +14°C° 0 mm 1 mps 558 mmHg 95%
    23:00 +14°C° 0 mm 1 mps 558 mmHg 94%
    Mostrar más